Location: *
(33.8649°S, 62.1526°E)
Time: 07:48:08
(UTC+00:00)

Cosmos 2360 Rocket - Visible Passes

Search period start: 09 May 2021 00:00
Search period end: 19 May 2021 00:00
Orbit: 833 x 845 km, 71.0° (Epoch: 08 May)

Date Brightness Start Highest point End Pass type
(mag) Time Alt. Az. Time Alt. Az. Time Alt. Az.
09 May 3.9 13:49:15 10° NW 13:54:15 32° WSW 13:59:18 10° S visible
10 May 3.8 13:33:23 10° NW 13:38:27 34° WSW 13:43:36 10° S visible
11 May 3.7 13:17:30 10° NW 13:22:41 37° WSW 13:27:54 10° S visible
